• Processing (Info)

  • MPEC 2006-G03 : 2006 FG36

    The following Minor Planet Electronic Circular may be linked-to from your own Web pages, but must not otherwise be redistributed electronically.

    A form allowing access to any MPEC is at the bottom of this page.


    Read MPEC 2006-G02 Read MPEC 2006-G04


    M.P.E.C. 2006-G03                                Issued 2006 Apr. 1, 13:04 UT
    
         The Minor Planet Electronic Circulars contain information on unusual
             minor planets and routine data on comets.  They are published
       on behalf of Commission 20 of the International Astronomical Union by the
              Minor Planet Center, Smithsonian Astrophysical Observatory,
                              Cambridge, MA 02138, U.S.A.
    
                      Supported in part by the Brinson Foundation
                      Supported in part by the TABASGO Foundation
                 Prepared using the Tamkin Foundation Computer Network
    
                                  MPC@CFA.HARVARD.EDU
              URL http://cfa-www.harvard.edu/iau/mpc.html  ISSN 1523-6714
    
                                       2006 FG36
    
    Observations:
         K06F36G* C2006 03 31.17419 07 20 44.84 +27 17 28.7          18.8   EG003704
         K06F36G  C2006 03 31.18459 07 20 48.89 +27 16 51.2          18.8   EG003704
         K06F36G  C2006 03 31.19596 07 20 53.26 +27 16 10.4          19.0   EG003704
         K06F36G  C2006 03 31.20708 07 20 57.52 +27 15 29.5          19.0   EG003704
         K06F36G  C2006 03 31.21750 07 21 01.57 +27 14 51.6          19.0   EG003704
         K06F36G  C2006 04 01.18138 07 27 22.93 +26 16 38.0          18.5 R EG003734
         K06F36G  C2006 04 01.18450 07 27 24.13 +26 16 26.1          18.9 R EG003734
         K06F36G  C2006 04 01.18762 07 27 25.30 +26 16 16.1          19.4 R EG003734
         K06F36G  C2006 04 01.19073 07 27 26.48 +26 16 02.5          18.3 R EG003734
         K06F36G  C2006 04 01.32471 07 28 20.83 +26 08 34.8          18.3 R EG003474
         K06F36G  C2006 04 01.32564 07 28 21.19 +26 08 31.0          18.0 R EG003474
         K06F36G  C2006 04 01.32992 07 28 22.85 +26 08 15.4          18.0 R EG003474
         K06F36G  C2006 04 01.33362 07 28 24.25 +26 08 01.6          17.9 R EG003474
         K06F36G  C2006 04 01.36950 07 28 38.04 +26 05 49.9          18.2 R EG003474
         K06F36G  C2006 04 01.37159 07 28 38.87 +26 05 40.8          18.2 R EG003474
         K06F36G  C2006 04 01.37367 07 28 39.65 +26 05 33.4          18.0 R EG003474
    
    Observer details:
    474 Mount John Observatory, Lake Tekapo.  Observer A. C. Gilmore.  Measurers
        P. M. Kilmartin, A. C. Gilmore.  1.0-m f/7.7 reflector + CCD.
    704 Lincoln Laboratory ETS, New Mexico.  Observers M. Bezpalko, L. Manguso,
        D. Torres, R. Kracke, M. Blythe, H. Love, G. Spitz.  Measurers J. Stuart,
        J. Kommers.  1.0-m f/2.15 reflector + CCD.
    734 Farpoint Observatory.  Observer G. Hug.  0.7-m reflector + CCD.
    
    Orbital elements:
    2006 FG36                                                Earth MOID = 0.0698 AU
    Epoch 2006 Mar. 6.0 TT = JDT 2453800.5                  MPC
    M 357.54899              (2000.0)            P               Q
    n   0.29581539     Peri.  153.98393     -0.92294693     -0.38478224
    a   2.2307738      Node     3.43815     +0.31524453     -0.77133037
    e   0.5327541      Incl.   10.14516     +0.22088425     -0.50694387
    P   3.33           H   19.1           G   0.15           U   8
    Residuals in seconds of arc
    060331 704  0.3-  0.1-    060401 734  0.3+  0.4-    060401 474  0.2-  0.3-
    060331 704  0.3+  0.0     060401 734  0.2-  1.2+    060401 474  0.1+  1.0+
    060331 704  0.2+  0.4+    060401 734  0.5-  0.8-    060401 474  0.5+  0.3-
    060331 704  0.2-  0.2-    060401 474  0.3-  0.0     060401 474  0.2+  0.0
    060331 704  0.1+  0.2-    060401 474  0.2-  0.4-
    060401 734  0.4+  0.1-    060401 474  0.0   0.1-
    
    Ephemeris:
    2006 FG36                a,e,i = 2.23, 0.53, 10                  q = 1.0423
    Date    TT    R. A. (2000) Decl.     Delta      r     Elong.  Phase     V
    2006 03 26    06 46.73   +31 59.3    0.261    1.052    94.8    70.8    18.8
    2006 04 05    07 52.40   +22 11.8    0.250    1.076   100.9    66.0    18.6
    2006 04 15    08 54.57   +10 30.8    0.259    1.111   108.2    59.0    18.5
    2006 04 25    09 49.19   -00 23.9    0.292    1.158   114.4    52.3    18.7
    2006 05 05    10 35.70   -08 53.1    0.347    1.212   118.4    47.0    19.0
    2006 05 15    11 15.24   -14 54.2    0.419    1.274   120.1    43.4    19.4
    2006 05 25    11 49.41   -19 03.2    0.505    1.339   120.0    40.9    19.9
    2006 06 04    12 19.71   -21 57.3    0.605    1.408   118.7    39.2    20.3
    2006 06 14    12 47.25   -24 03.4    0.715    1.479   116.4    38.0    20.7
    2006 06 24    13 12.79   -25 38.4    0.837    1.551   113.3    37.0    21.2
    2006 07 04    13 36.94   -26 53.3    0.968    1.624   109.8    36.1    21.6
    2006 07 14    14 00.10   -27 54.8    1.109    1.696   105.8    35.2    21.9
    
    Timothy B. Spahr             (C) Copyright 2006 MPC           M.P.E.C. 2006-G03
    

    Read MPEC 2006-G02 Read MPEC 2006-G04


    MPEC number:

    Enter an MPEC number in one of the following forms:

    • 1997-B01 (the full form)
    • J97B01 (the packed version of the full form)
    • B01 (the abbreviated form)